owner,sensor,date,latitude,longitude,sea_surface_height_above_sea_level,qcFlag 
COMPS,ioos:station:USF.COMPS:SHP:1,2015-07-01T00:00:00Z,30.0600,-84.2910,-0.623,1111122 
COMPS,ioos:station:USF.COMPS:SHP:1,2015-07-01T00:06:00Z,30.0600,-84.2910,-0.624,1111122 
COMPS,ioos:station:USF.COMPS:SHP:1,2015-07-01T00:12:00Z,30.0600,-84.2910,-0.625,1111122 
COMPS,ioos:station:USF.COMPS:SHP:1,2015-07-01T00:18:00Z,30.0600,-84.2910,-0.625,1111122 
COMPS,ioos:station:USF.COMPS:SHP:1,2015-07-01T00:24:00Z,30.0600,-84.2910,-0.625,1111122 
COMPS,ioos:station:USF.COMPS:SHP:1,2015-07-01T00:30:00Z,30.0600,-84.2910,-0.626,1111122 
COMPS,ioos:station:USF.COMPS:SHP:1,2015-07-01T00:36:00Z,30.0600,-84.2910,-0.627,1111122 
COMPS,ioos:station:USF.COMPS:SHP:1,2015-07-01T00:42:00Z,30.0600,-84.2910,-0.627,1111122 
COMPS,ioos:station:USF.COMPS:SHP:1,2015-07-01T00:48:00Z,30.0600,-84.2910,-0.627,1111122 
COMPS,ioos:station:USF.COMPS:SHP:1,2015-07-01T00:54:00Z,30.0600,-84.2910,-0.628,1111122 
COMPS,ioos:station:USF.COMPS:SHP:1,2015-07-01T01:00:00Z,30.0600,-84.2910,-0.628,1111122 
COMPS,ioos:station:USF.COMPS:SHP:1,2015-07-01T01:06:00Z,30.0600,-84.2910,-0.628,1111122 
COMPS,ioos:station:USF.COMPS:SHP:1,2015-07-01T01:12:00Z,30.0600,-84.2910,-0.628,1111122 
COMPS,ioos:station:USF.COMPS:SHP:1,2015-07-01T01:18:00Z,30.0600,-84.2910,-0.629,1111122 
COMPS,ioos:station:USF.COMPS:SHP:1,2015-07-01T01:24:00Z,30.0600,-84.2910,-0.629,1111122 
COMPS,ioos:station:USF.COMPS:SHP:1,2015-07-01T01:30:00Z,30.0600,-84.2910,-0.629,1111122 
COMPS,ioos:station:USF.COMPS:SHP:1,2015-07-01T01:36:00Z,30.0600,-84.2910,-0.629,1111122 
COMPS,ioos:station:USF.COMPS:SHP:1,2015-07-01T01:42:00Z,30.0600,-84.2910,-0.629,1111122 
COMPS,ioos:station:USF.COMPS:SHP:1,2015-07-01T01:48:00Z,30.0600,-84.2910,-0.629,1111122 
COMPS,ioos:station:USF.COMPS:SHP:1,2015-07-01T01:54:00Z,30.0600,-84.2910,-0.629,1111122 
COMPS,ioos:station:USF.COMPS:SHP:1,2015-07-01T02:00:00Z,30.0600,-84.2910,-0.629,1111122 
COMPS,ioos:station:USF.COMPS:SHP:1,2015-07-01T02:06:00Z,30.0600,-84.2910,-0.629,1111122 
COMPS,ioos:station:USF.COMPS:SHP:1,2015-07-01T02:12:00Z,30.0600,-84.2910,-0.626,1111122 
COMPS,ioos:station:USF.COMPS:SHP:1,2015-07-01T02:18:00Z,30.0600,-84.2910,-0.618,1111122 
COMPS,ioos:station:USF.COMPS:SHP:1,2015-07-01T02:24:00Z,30.0600,-84.2910,-0.61,1111122 
COMPS,ioos:station:USF.COMPS:SHP:1,2015-07-01T02:30:00Z,30.0600,-84.2910,-0.607,1111122 
COMPS,ioos:station:USF.COMPS:SHP:1,2015-07-01T02:36:00Z,30.0600,-84.2910,-0.604,1111122 
COMPS,ioos:station:USF.COMPS:SHP:1,2015-07-01T02:42:00Z,30.0600,-84.2910,-0.592,1111122 
COMPS,ioos:station:USF.COMPS:SHP:1,2015-07-01T02:48:00Z,30.0600,-84.2910,-0.57,1111122 
COMPS,ioos:station:USF.COMPS:SHP:1,2015-07-01T02:54:00Z,30.0600,-84.2910,-0.549,1111122 
COMPS,ioos:station:USF.COMPS:SHP:1,2015-07-01T03:00:00Z,30.0600,-84.2910,-0.522,1111122 
COMPS,ioos:station:USF.COMPS:SHP:1,2015-07-01T03:06:00Z,30.0600,-84.2910,-0.492,1111122 
COMPS,ioos:station:USF.COMPS:SHP:1,2015-07-01T03:12:00Z,30.0600,-84.2910,-0.462,1111122 
COMPS,ioos:station:USF.COMPS:SHP:1,2015-07-01T03:18:00Z,30.0600,-84.2910,-0.431,1111122 
COMPS,ioos:station:USF.COMPS:SHP:1,2015-07-01T03:24:00Z,30.0600,-84.2910,-0.403,1111122 
COMPS,ioos:station:USF.COMPS:SHP:1,2015-07-01T03:30:00Z,30.0600,-84.2910,-0.374,1111122 
COMPS,ioos:station:USF.COMPS:SHP:1,2015-07-01T03:36:00Z,30.0600,-84.2910,-0.347,1111122 
COMPS,ioos:station:USF.COMPS:SHP:1,2015-07-01T03:42:00Z,30.0600,-84.2910,-0.322,1111122 
COMPS,ioos:station:USF.COMPS:SHP:1,2015-07-01T03:48:00Z,30.0600,-84.2910,-0.292,1111122 
COMPS,ioos:station:USF.COMPS:SHP:1,2015-07-01T03:54:00Z,30.0600,-84.2910,-0.257,1111122 
COMPS,ioos:station:USF.COMPS:SHP:1,2015-07-01T04:00:00Z,30.0600,-84.2910,-0.225,1111122 
COMPS,ioos:station:USF.COMPS:SHP:1,2015-07-01T04:06:00Z,30.0600,-84.2910,-0.196,1111122 
COMPS,ioos:station:USF.COMPS:SHP:1,2015-07-01T04:12:00Z,30.0600,-84.2910,-0.167,1111122 
COMPS,ioos:station:USF.COMPS:SHP:1,2015-07-01T04:18:00Z,30.0600,-84.2910,-0.14,1111122 
COMPS,ioos:station:USF.COMPS:SHP:1,2015-07-01T04:24:00Z,30.0600,-84.2910,-0.113,1111122 
COMPS,ioos:station:USF.COMPS:SHP:1,2015-07-01T04:30:00Z,30.0600,-84.2910,-0.089,1111122 
COMPS,ioos:station:USF.COMPS:SHP:1,2015-07-01T04:36:00Z,30.0600,-84.2910,-0.067,1111122 
COMPS,ioos:station:USF.COMPS:SHP:1,2015-07-01T04:42:00Z,30.0600,-84.2910,-0.044,1111122 
COMPS,ioos:station:USF.COMPS:SHP:1,2015-07-01T04:48:00Z,30.0600,-84.2910,-0.024,1111122 
COMPS,ioos:station:USF.COMPS:SHP:1,2015-07-01T04:54:00Z,30.0600,-84.2910,-0.004,1111122 
COMPS,ioos:station:USF.COMPS:SHP:1,2015-07-01T05:00:00Z,30.0600,-84.2910,0.024,1111122 
COMPS,ioos:station:USF.COMPS:SHP:1,2015-07-01T05:06:00Z,30.0600,-84.2910,0.055,1111122 
COMPS,ioos:station:USF.COMPS:SHP:1,2015-07-01T05:12:00Z,30.0600,-84.2910,0.076,1111122 
COMPS,ioos:station:USF.COMPS:SHP:1,2015-07-01T05:18:00Z,30.0600,-84.2910,0.096,1111122 
COMPS,ioos:station:USF.COMPS:SHP:1,2015-07-01T05:24:00Z,30.0600,-84.2910,0.118,1111122 
COMPS,ioos:station:USF.COMPS:SHP:1,2015-07-01T05:30:00Z,30.0600,-84.2910,0.141,1111122 
COMPS,ioos:station:USF.COMPS:SHP:1,2015-07-01T05:36:00Z,30.0600,-84.2910,0.164,1111122 
COMPS,ioos:station:USF.COMPS:SHP:1,2015-07-01T05:42:00Z,30.0600,-84.2910,0.186,1111122 
COMPS,ioos:station:USF.COMPS:SHP:1,2015-07-01T05:48:00Z,30.0600,-84.2910,0.211,1111122 
COMPS,ioos:station:USF.COMPS:SHP:1,2015-07-01T05:54:00Z,30.0600,-84.2910,0.233,1111122 
COMPS,ioos:station:USF.COMPS:SHP:1,2015-07-01T06:00:00Z,30.0600,-84.2910,0.26,1111122 
COMPS,ioos:station:USF.COMPS:SHP:1,2015-07-01T06:06:00Z,30.0600,-84.2910,0.276,1111122 
COMPS,ioos:station:USF.COMPS:SHP:1,2015-07-01T06:12:00Z,30.0600,-84.2910,0.29,1111122 
COMPS,ioos:station:USF.COMPS:SHP:1,2015-07-01T06:18:00Z,30.0600,-84.2910,0.306,1111122 
COMPS,ioos:station:USF.COMPS:SHP:1,2015-07-01T06:24:00Z,30.0600,-84.2910,0.319,1111122 
COMPS,ioos:station:USF.COMPS:SHP:1,2015-07-01T06:30:00Z,30.0600,-84.2910,0.333,1111122 
COMPS,ioos:station:USF.COMPS:SHP:1,2015-07-01T06:36:00Z,30.0600,-84.2910,0.343,1111122 
COMPS,ioos:station:USF.COMPS:SHP:1,2015-07-01T06:42:00Z,30.0600,-84.2910,0.352,1111122 
COMPS,ioos:station:USF.COMPS:SHP:1,2015-07-01T06:48:00Z,30.0600,-84.2910,0.36,1111122 
COMPS,ioos:station:USF.COMPS:SHP:1,2015-07-01T06:54:00Z,30.0600,-84.2910,0.366,1111122 
COMPS,ioos:station:USF.COMPS:SHP:1,2015-07-01T07:00:00Z,30.0600,-84.2910,0.371,1111122 
COMPS,ioos:station:USF.COMPS:SHP:1,2015-07-01T07:06:00Z,30.0600,-84.2910,0.38,1111122 
COMPS,ioos:station:USF.COMPS:SHP:1,2015-07-01T07:12:00Z,30.0600,-84.2910,0.396,1111122 
COMPS,ioos:station:USF.COMPS:SHP:1,2015-07-01T07:18:00Z,30.0600,-84.2910,0.396,1111122 
COMPS,ioos:station:USF.COMPS:SHP:1,2015-07-01T07:24:00Z,30.0600,-84.2910,0.388,1111122 
COMPS,ioos:station:USF.COMPS:SHP:1,2015-07-01T07:30:00Z,30.0600,-84.2910,0.383,1111122 
COMPS,ioos:station:USF.COMPS:SHP:1,2015-07-01T07:36:00Z,30.0600,-84.2910,0.384,1111122 
COMPS,ioos:station:USF.COMPS:SHP:1,2015-07-01T07:42:00Z,30.0600,-84.2910,0.384,1111122 
COMPS,ioos:station:USF.COMPS:SHP:1,2015-07-01T07:48:00Z,30.0600,-84.2910,0.397,1111122 
COMPS,ioos:station:USF.COMPS:SHP:1,2015-07-01T07:54:00Z,30.0600,-84.2910,0.399,1111122 
COMPS,ioos:station:USF.COMPS:SHP:1,2015-07-01T08:00:00Z,30.0600,-84.2910,0.382,1111122 
COMPS,ioos:station:USF.COMPS:SHP:1,2015-07-01T08:06:00Z,30.0600,-84.2910,0.364,1111122 
COMPS,ioos:station:USF.COMPS:SHP:1,2015-07-01T08:12:00Z,30.0600,-84.2910,0.361,1111122 
COMPS,ioos:station:USF.COMPS:SHP:1,2015-07-01T08:18:00Z,30.0600,-84.2910,0.357,1111122 
COMPS,ioos:station:USF.COMPS:SHP:1,2015-07-01T08:24:00Z,30.0600,-84.2910,0.34,1111122 
COMPS,ioos:station:USF.COMPS:SHP:1,2015-07-01T08:30:00Z,30.0600,-84.2910,0.324,1111122 
COMPS,ioos:station:USF.COMPS:SHP:1,2015-07-01T08:36:00Z,30.0600,-84.2910,0.313,1111122 
COMPS,ioos:station:USF.COMPS:SHP:1,2015-07-01T08:42:00Z,30.0600,-84.2910,0.304,1111122 
COMPS,ioos:station:USF.COMPS:SHP:1,2015-07-01T08:48:00Z,30.0600,-84.2910,0.287,1111122 
COMPS,ioos:station:USF.COMPS:SHP:1,2015-07-01T08:54:00Z,30.0600,-84.2910,0.261,1111122 
COMPS,ioos:station:USF.COMPS:SHP:1,2015-07-01T09:00:00Z,30.0600,-84.2910,0.235,1111122 
COMPS,ioos:station:USF.COMPS:SHP:1,2015-07-01T09:06:00Z,30.0600,-84.2910,0.225,1111122 
COMPS,ioos:station:USF.COMPS:SHP:1,2015-07-01T09:12:00Z,30.0600,-84.2910,0.211,1111122 
COMPS,ioos:station:USF.COMPS:SHP:1,2015-07-01T09:18:00Z,30.0600,-84.2910,0.192,1111122 
COMPS,ioos:station:USF.COMPS:SHP:1,2015-07-01T09:24:00Z,30.0600,-84.2910,0.173,1111122 
COMPS,ioos:station:USF.COMPS:SHP:1,2015-07-01T09:30:00Z,30.0600,-84.2910,0.156,1111122 
COMPS,ioos:station:USF.COMPS:SHP:1,2015-07-01T09:36:00Z,30.0600,-84.2910,0.14,1111122 
COMPS,ioos:station:USF.COMPS:SHP:1,2015-07-01T09:42:00Z,30.0600,-84.2910,0.127,1111122 
COMPS,ioos:station:USF.COMPS:SHP:1,2015-07-01T09:48:00Z,30.0600,-84.2910,0.113,1111122 
COMPS,ioos:station:USF.COMPS:SHP:1,2015-07-01T09:54:00Z,30.0600,-84.2910,0.096,1111122 
COMPS,ioos:station:USF.COMPS:SHP:1,2015-07-01T10:00:00Z,30.0600,-84.2910,0.077,1111122 
COMPS,ioos:station:USF.COMPS:SHP:1,2015-07-01T10:06:00Z,30.0600,-84.2910,0.057,1111122 
COMPS,ioos:station:USF.COMPS:SHP:1,2015-07-01T10:12:00Z,30.0600,-84.2910,0.038,1111122 
COMPS,ioos:station:USF.COMPS:SHP:1,2015-07-01T10:18:00Z,30.0600,-84.2910,0.025,1111122 
COMPS,ioos:station:USF.COMPS:SHP:1,2015-07-01T10:24:00Z,30.0600,-84.2910,0.018,1111122 
COMPS,ioos:station:USF.COMPS:SHP:1,2015-07-01T10:30:00Z,30.0600,-84.2910,0.011,1111122 
COMPS,ioos:station:USF.COMPS:SHP:1,2015-07-01T10:36:00Z,30.0600,-84.2910,-0.007,1111122 
COMPS,ioos:station:USF.COMPS:SHP:1,2015-07-01T10:42:00Z,30.0600,-84.2910,-0.031,1111122 
COMPS,ioos:station:USF.COMPS:SHP:1,2015-07-01T10:48:00Z,30.0600,-84.2910,-0.048,1111122 
COMPS,ioos:station:USF.COMPS:SHP:1,2015-07-01T10:54:00Z,30.0600,-84.2910,-0.06,1111122 
COMPS,ioos:station:USF.COMPS:SHP:1,2015-07-01T11:00:00Z,30.0600,-84.2910,-0.071,1111122 
COMPS,ioos:station:USF.COMPS:SHP:1,2015-07-01T11:06:00Z,30.0600,-84.2910,-0.083,1111122 
COMPS,ioos:station:USF.COMPS:SHP:1,2015-07-01T11:12:00Z,30.0600,-84.2910,-0.095,1111122 
COMPS,ioos:station:USF.COMPS:SHP:1,2015-07-01T11:18:00Z,30.0600,-84.2910,-0.11,1111122 
COMPS,ioos:station:USF.COMPS:SHP:1,2015-07-01T11:24:00Z,30.0600,-84.2910,-0.125,1111122 
COMPS,ioos:station:USF.COMPS:SHP:1,2015-07-01T11:30:00Z,30.0600,-84.2910,-0.131,1111122 
COMPS,ioos:station:USF.COMPS:SHP:1,2015-07-01T11:36:00Z,30.0600,-84.2910,-0.134,1111122 
COMPS,ioos:station:USF.COMPS:SHP:1,2015-07-01T11:42:00Z,30.0600,-84.2910,-0.137,1111122 
COMPS,ioos:station:USF.COMPS:SHP:1,2015-07-01T11:48:00Z,30.0600,-84.2910,-0.14,1111122 
COMPS,ioos:station:USF.COMPS:SHP:1,2015-07-01T11:54:00Z,30.0600,-84.2910,-0.136,1111122 
COMPS,ioos:station:USF.COMPS:SHP:1,2015-07-01T12:00:00Z,30.0600,-84.2910,-0.13,1111122 
COMPS,ioos:station:USF.COMPS:SHP:1,2015-07-01T12:06:00Z,30.0600,-84.2910,-0.125,1111122 
COMPS,ioos:station:USF.COMPS:SHP:1,2015-07-01T12:12:00Z,30.0600,-84.2910,-0.125,1111122 
COMPS,ioos:station:USF.COMPS:SHP:1,2015-07-01T12:18:00Z,30.0600,-84.2910,-0.13,1111122 
COMPS,ioos:station:USF.COMPS:SHP:1,2015-07-01T12:24:00Z,30.0600,-84.2910,-0.129,1111122 
COMPS,ioos:station:USF.COMPS:SHP:1,2015-07-01T12:30:00Z,30.0600,-84.2910,-0.122,1111122 
COMPS,ioos:station:USF.COMPS:SHP:1,2015-07-01T12:36:00Z,30.0600,-84.2910,-0.118,1111122 
COMPS,ioos:station:USF.COMPS:SHP:1,2015-07-01T12:42:00Z,30.0600,-84.2910,-0.125,1111122 
COMPS,ioos:station:USF.COMPS:SHP:1,2015-07-01T12:48:00Z,30.0600,-84.2910,-0.128,1111122 
COMPS,ioos:station:USF.COMPS:SHP:1,2015-07-01T12:54:00Z,30.0600,-84.2910,-0.124,1111122 
COMPS,ioos:station:USF.COMPS:SHP:1,2015-07-01T13:00:00Z,30.0600,-84.2910,-0.11,1111122 
COMPS,ioos:station:USF.COMPS:SHP:1,2015-07-01T13:06:00Z,30.0600,-84.2910,-0.1,1111122 
COMPS,ioos:station:USF.COMPS:SHP:1,2015-07-01T13:12:00Z,30.0600,-84.2910,-0.089,1111122 
COMPS,ioos:station:USF.COMPS:SHP:1,2015-07-01T13:18:00Z,30.0600,-84.2910,-0.082,1111122 
COMPS,ioos:station:USF.COMPS:SHP:1,2015-07-01T13:24:00Z,30.0600,-84.2910,-0.074,1111122 
COMPS,ioos:station:USF.COMPS:SHP:1,2015-07-01T13:30:00Z,30.0600,-84.2910,-0.068,1111122 
COMPS,ioos:station:USF.COMPS:SHP:1,2015-07-01T13:36:00Z,30.0600,-84.2910,-0.063,1111122 
COMPS,ioos:station:USF.COMPS:SHP:1,2015-07-01T13:42:00Z,30.0600,-84.2910,-0.056,1111122 
COMPS,ioos:station:USF.COMPS:SHP:1,2015-07-01T13:48:00Z,30.0600,-84.2910,-0.048,1111122 
COMPS,ioos:station:USF.COMPS:SHP:1,2015-07-01T13:54:00Z,30.0600,-84.2910,-0.038,1111122 
COMPS,ioos:station:USF.COMPS:SHP:1,2015-07-01T14:00:00Z,30.0600,-84.2910,-0.022,1111122 
COMPS,ioos:station:USF.COMPS:SHP:1,2015-07-01T14:06:00Z,30.0600,-84.2910,-0.002,1111122 
COMPS,ioos:station:USF.COMPS:SHP:1,2015-07-01T14:12:00Z,30.0600,-84.2910,0.009,1111122 
COMPS,ioos:station:USF.COMPS:SHP:1,2015-07-01T14:18:00Z,30.0600,-84.2910,0.019,1111122 
COMPS,ioos:station:USF.COMPS:SHP:1,2015-07-01T14:24:00Z,30.0600,-84.2910,0.031,1111122 
COMPS,ioos:station:USF.COMPS:SHP:1,2015-07-01T14:30:00Z,30.0600,-84.2910,0.044,1111122 
COMPS,ioos:station:USF.COMPS:SHP:1,2015-07-01T14:36:00Z,30.0600,-84.2910,0.062,1111122 
COMPS,ioos:station:USF.COMPS:SHP:1,2015-07-01T14:42:00Z,30.0600,-84.2910,0.078,1111122 
COMPS,ioos:station:USF.COMPS:SHP:1,2015-07-01T14:48:00Z,30.0600,-84.2910,0.099,1111122 
COMPS,ioos:station:USF.COMPS:SHP:1,2015-07-01T14:54:00Z,30.0600,-84.2910,0.123,1111122 
COMPS,ioos:station:USF.COMPS:SHP:1,2015-07-01T15:00:00Z,30.0600,-84.2910,0.139,1111122 
COMPS,ioos:station:USF.COMPS:SHP:1,2015-07-01T15:06:00Z,30.0600,-84.2910,0.156,1111122 
COMPS,ioos:station:USF.COMPS:SHP:1,2015-07-01T15:12:00Z,30.0600,-84.2910,0.176,1111122 
COMPS,ioos:station:USF.COMPS:SHP:1,2015-07-01T15:18:00Z,30.0600,-84.2910,0.201,1111122 
COMPS,ioos:station:USF.COMPS:SHP:1,2015-07-01T15:24:00Z,30.0600,-84.2910,0.23,1111122 
COMPS,ioos:station:USF.COMPS:SHP:1,2015-07-01T15:30:00Z,30.0600,-84.2910,0.253,1111122 
COMPS,ioos:station:USF.COMPS:SHP:1,2015-07-01T15:36:00Z,30.0600,-84.2910,0.27,1111122 
COMPS,ioos:station:USF.COMPS:SHP:1,2015-07-01T15:42:00Z,30.0600,-84.2910,0.278,1111122 
COMPS,ioos:station:USF.COMPS:SHP:1,2015-07-01T15:48:00Z,30.0600,-84.2910,0.29,1111122 
COMPS,ioos:station:USF.COMPS:SHP:1,2015-07-01T15:54:00Z,30.0600,-84.2910,0.313,1111122 
COMPS,ioos:station:USF.COMPS:SHP:1,2015-07-01T16:00:00Z,30.0600,-84.2910,0.325,1111122 
COMPS,ioos:station:USF.COMPS:SHP:1,2015-07-01T16:06:00Z,30.0600,-84.2910,0.332,1111122 
COMPS,ioos:station:USF.COMPS:SHP:1,2015-07-01T16:12:00Z,30.0600,-84.2910,0.354,1111122 
COMPS,ioos:station:USF.COMPS:SHP:1,2015-07-01T16:18:00Z,30.0600,-84.2910,0.381,1111122 
COMPS,ioos:station:USF.COMPS:SHP:1,2015-07-01T16:24:00Z,30.0600,-84.2910,0.4,1111122 
COMPS,ioos:station:USF.COMPS:SHP:1,2015-07-01T16:30:00Z,30.0600,-84.2910,0.413,1111122 
COMPS,ioos:station:USF.COMPS:SHP:1,2015-07-01T16:36:00Z,30.0600,-84.2910,0.425,1111122 
COMPS,ioos:station:USF.COMPS:SHP:1,2015-07-01T16:42:00Z,30.0600,-84.2910,0.434,1111122 
COMPS,ioos:station:USF.COMPS:SHP:1,2015-07-01T16:48:00Z,30.0600,-84.2910,0.445,1111122 
COMPS,ioos:station:USF.COMPS:SHP:1,2015-07-01T16:54:00Z,30.0600,-84.2910,0.46,1111122 
COMPS,ioos:station:USF.COMPS:SHP:1,2015-07-01T17:00:00Z,30.0600,-84.2910,0.468,1111122 
COMPS,ioos:station:USF.COMPS:SHP:1,2015-07-01T17:06:00Z,30.0600,-84.2910,0.477,1111122 
COMPS,ioos:station:USF.COMPS:SHP:1,2015-07-01T17:12:00Z,30.0600,-84.2910,0.481,1111122 
COMPS,ioos:station:USF.COMPS:SHP:1,2015-07-01T17:18:00Z,30.0600,-84.2910,0.485,1111122 
COMPS,ioos:station:USF.COMPS:SHP:1,2015-07-01T17:24:00Z,30.0600,-84.2910,0.496,1111122 
COMPS,ioos:station:USF.COMPS:SHP:1,2015-07-01T17:30:00Z,30.0600,-84.2910,0.507,1111122 
COMPS,ioos:station:USF.COMPS:SHP:1,2015-07-01T17:36:00Z,30.0600,-84.2910,0.515,1111122 
COMPS,ioos:station:USF.COMPS:SHP:1,2015-07-01T17:42:00Z,30.0600,-84.2910,0.526,1111122 
COMPS,ioos:station:USF.COMPS:SHP:1,2015-07-01T17:48:00Z,30.0600,-84.2910,0.538,1111122 
COMPS,ioos:station:USF.COMPS:SHP:1,2015-07-01T17:54:00Z,30.0600,-84.2910,0.547,1111122 
COMPS,ioos:station:USF.COMPS:SHP:1,2015-07-01T18:00:00Z,30.0600,-84.2910,0.552,1111122 
COMPS,ioos:station:USF.COMPS:SHP:1,2015-07-01T18:06:00Z,30.0600,-84.2910,0.549,1111122 
COMPS,ioos:station:USF.COMPS:SHP:1,2015-07-01T18:12:00Z,30.0600,-84.2910,0.553,1111122 
COMPS,ioos:station:USF.COMPS:SHP:1,2015-07-01T18:18:00Z,30.0600,-84.2910,0.578,1111122 
COMPS,ioos:station:USF.COMPS:SHP:1,2015-07-01T18:24:00Z,30.0600,-84.2910,0.589,1111122 
COMPS,ioos:station:USF.COMPS:SHP:1,2015-07-01T18:30:00Z,30.0600,-84.2910,0.584,1111122 
COMPS,ioos:station:USF.COMPS:SHP:1,2015-07-01T18:36:00Z,30.0600,-84.2910,0.588,1111122 
COMPS,ioos:station:USF.COMPS:SHP:1,2015-07-01T18:42:00Z,30.0600,-84.2910,0.588,1111122 
COMPS,ioos:station:USF.COMPS:SHP:1,2015-07-01T18:48:00Z,30.0600,-84.2910,0.58,1111122 
COMPS,ioos:station:USF.COMPS:SHP:1,2015-07-01T18:54:00Z,30.0600,-84.2910,0.579,1111122 
COMPS,ioos:station:USF.COMPS:SHP:1,2015-07-01T19:00:00Z,30.0600,-84.2910,0.58,1111122 
COMPS,ioos:station:USF.COMPS:SHP:1,2015-07-01T19:06:00Z,30.0600,-84.2910,0.579,1111122 
COMPS,ioos:station:USF.COMPS:SHP:1,2015-07-01T19:12:00Z,30.0600,-84.2910,0.579,1111122 
COMPS,ioos:station:USF.COMPS:SHP:1,2015-07-01T19:18:00Z,30.0600,-84.2910,0.567,1111122 
COMPS,ioos:station:USF.COMPS:SHP:1,2015-07-01T19:24:00Z,30.0600,-84.2910,0.552,1111122 
COMPS,ioos:station:USF.COMPS:SHP:1,2015-07-01T19:30:00Z,30.0600,-84.2910,0.553,1111122 
COMPS,ioos:station:USF.COMPS:SHP:1,2015-07-01T19:36:00Z,30.0600,-84.2910,0.548,1111122 
COMPS,ioos:station:USF.COMPS:SHP:1,2015-07-01T19:42:00Z,30.0600,-84.2910,0.523,1111122 
COMPS,ioos:station:USF.COMPS:SHP:1,2015-07-01T19:48:00Z,30.0600,-84.2910,0.511,1111122 
COMPS,ioos:station:USF.COMPS:SHP:1,2015-07-01T19:54:00Z,30.0600,-84.2910,0.497,1111122 
COMPS,ioos:station:USF.COMPS:SHP:1,2015-07-01T20:00:00Z,30.0600,-84.2910,0.476,1111122 
COMPS,ioos:station:USF.COMPS:SHP:1,2015-07-01T20:06:00Z,30.0600,-84.2910,0.46,1111122 
COMPS,ioos:station:USF.COMPS:SHP:1,2015-07-01T20:12:00Z,30.0600,-84.2910,0.45,1111122 
COMPS,ioos:station:USF.COMPS:SHP:1,2015-07-01T20:18:00Z,30.0600,-84.2910,0.425,1111122 
COMPS,ioos:station:USF.COMPS:SHP:1,2015-07-01T20:24:00Z,30.0600,-84.2910,0.398,1111122 
COMPS,ioos:station:USF.COMPS:SHP:1,2015-07-01T20:30:00Z,30.0600,-84.2910,0.376,1111122 
COMPS,ioos:station:USF.COMPS:SHP:1,2015-07-01T20:36:00Z,30.0600,-84.2910,0.352,1111122 
COMPS,ioos:station:USF.COMPS:SHP:1,2015-07-01T20:42:00Z,30.0600,-84.2910,0.323,1111122 
COMPS,ioos:station:USF.COMPS:SHP:1,2015-07-01T20:48:00Z,30.0600,-84.2910,0.293,1111122 
COMPS,ioos:station:USF.COMPS:SHP:1,2015-07-01T20:54:00Z,30.0600,-84.2910,0.262,1111122 
COMPS,ioos:station:USF.COMPS:SHP:1,2015-07-01T21:00:00Z,30.0600,-84.2910,0.229,1111122 
COMPS,ioos:station:USF.COMPS:SHP:1,2015-07-01T21:06:00Z,30.0600,-84.2910,0.196,1111122 
COMPS,ioos:station:USF.COMPS:SHP:1,2015-07-01T21:12:00Z,30.0600,-84.2910,0.171,1111122 
COMPS,ioos:station:USF.COMPS:SHP:1,2015-07-01T21:18:00Z,30.0600,-84.2910,0.147,1111122 
COMPS,ioos:station:USF.COMPS:SHP:1,2015-07-01T21:24:00Z,30.0600,-84.2910,0.12,1111122 
COMPS,ioos:station:USF.COMPS:SHP:1,2015-07-01T21:30:00Z,30.0600,-84.2910,0.095,1111122 
COMPS,ioos:station:USF.COMPS:SHP:1,2015-07-01T21:36:00Z,30.0600,-84.2910,0.069,1111122 
COMPS,ioos:station:USF.COMPS:SHP:1,2015-07-01T21:42:00Z,30.0600,-84.2910,0.044,1111122 
COMPS,ioos:station:USF.COMPS:SHP:1,2015-07-01T21:48:00Z,30.0600,-84.2910,0.012,1111122 
COMPS,ioos:station:USF.COMPS:SHP:1,2015-07-01T21:54:00Z,30.0600,-84.2910,-0.024,1111122 
COMPS,ioos:station:USF.COMPS:SHP:1,2015-07-01T22:00:00Z,30.0600,-84.2910,-0.053,1111122 
COMPS,ioos:station:USF.COMPS:SHP:1,2015-07-01T22:06:00Z,30.0600,-84.2910,-0.083,1111122 
COMPS,ioos:station:USF.COMPS:SHP:1,2015-07-01T22:12:00Z,30.0600,-84.2910,-0.116,1111122 
COMPS,ioos:station:USF.COMPS:SHP:1,2015-07-01T22:18:00Z,30.0600,-84.2910,-0.142,1111122 
COMPS,ioos:station:USF.COMPS:SHP:1,2015-07-01T22:24:00Z,30.0600,-84.2910,-0.165,1111122 
COMPS,ioos:station:USF.COMPS:SHP:1,2015-07-01T22:30:00Z,30.0600,-84.2910,-0.191,1111122 
COMPS,ioos:station:USF.COMPS:SHP:1,2015-07-01T22:36:00Z,30.0600,-84.2910,-0.221,1111122 
COMPS,ioos:station:USF.COMPS:SHP:1,2015-07-01T22:42:00Z,30.0600,-84.2910,-0.243,1111122 
COMPS,ioos:station:USF.COMPS:SHP:1,2015-07-01T22:48:00Z,30.0600,-84.2910,-0.264,1111122 
COMPS,ioos:station:USF.COMPS:SHP:1,2015-07-01T22:54:00Z,30.0600,-84.2910,-0.29,1111122 
COMPS,ioos:station:USF.COMPS:SHP:1,2015-07-01T23:00:00Z,30.0600,-84.2910,-0.315,1111122 
COMPS,ioos:station:USF.COMPS:SHP:1,2015-07-01T23:06:00Z,30.0600,-84.2910,-0.336,1111122 
COMPS,ioos:station:USF.COMPS:SHP:1,2015-07-01T23:12:00Z,30.0600,-84.2910,-0.353,1111122 
COMPS,ioos:station:USF.COMPS:SHP:1,2015-07-01T23:18:00Z,30.0600,-84.2910,-0.372,1111122 
COMPS,ioos:station:USF.COMPS:SHP:1,2015-07-01T23:24:00Z,30.0600,-84.2910,-0.391,1111122 
COMPS,ioos:station:USF.COMPS:SHP:1,2015-07-01T23:30:00Z,30.0600,-84.2910,-0.409,1111122 
COMPS,ioos:station:USF.COMPS:SHP:1,2015-07-01T23:36:00Z,30.0600,-84.2910,-0.428,1111122 
COMPS,ioos:station:USF.COMPS:SHP:1,2015-07-01T23:42:00Z,30.0600,-84.2910,-0.447,1111122 
COMPS,ioos:station:USF.COMPS:SHP:1,2015-07-01T23:48:00Z,30.0600,-84.2910,-0.468,1111122 
COMPS,ioos:station:USF.COMPS:SHP:1,2015-07-01T23:54:00Z,30.0600,-84.2910,-0.491,1111122 
COMPS,ioos:station:USF.COMPS:SHP:1,2015-07-02T00:00:00Z,30.0600,-84.2910,-0.513,1111122 
COMPS,ioos:station:USF.COMPS:SHP:1,2015-07-02T00:06:00Z,30.0600,-84.2910,-0.534,1111122 
COMPS,ioos:station:USF.COMPS:SHP:1,2015-07-02T00:12:00Z,30.0600,-84.2910,-0.558,1111122 
COMPS,ioos:station:USF.COMPS:SHP:1,2015-07-02T00:18:00Z,30.0600,-84.2910,-0.584,1111122 
COMPS,ioos:station:USF.COMPS:SHP:1,2015-07-02T00:24:00Z,30.0600,-84.2910,-0.605,1111122 
COMPS,ioos:station:USF.COMPS:SHP:1,2015-07-02T00:30:00Z,30.0600,-84.2910,-0.624,1111122 
COMPS,ioos:station:USF.COMPS:SHP:1,2015-07-02T00:36:00Z,30.0600,-84.2910,-0.625,1111122 
COMPS,ioos:station:USF.COMPS:SHP:1,2015-07-02T00:42:00Z,30.0600,-84.2910,-0.627,1111122 
COMPS,ioos:station:USF.COMPS:SHP:1,2015-07-02T00:48:00Z,30.0600,-84.2910,-0.628,1111122 
COMPS,ioos:station:USF.COMPS:SHP:1,2015-07-02T00:54:00Z,30.0600,-84.2910,-0.629,1111122 
COMPS,ioos:station:USF.COMPS:SHP:1,2015-07-02T01:00:00Z,30.0600,-84.2910,-0.63,1111122 
COMPS,ioos:station:USF.COMPS:SHP:1,2015-07-02T01:06:00Z,30.0600,-84.2910,-0.63,1111122 
COMPS,ioos:station:USF.COMPS:SHP:1,2015-07-02T01:12:00Z,30.0600,-84.2910,-0.63,1111122 
COMPS,ioos:station:USF.COMPS:SHP:1,2015-07-02T01:18:00Z,30.0600,-84.2910,-0.63,1111122 
COMPS,ioos:station:USF.COMPS:SHP:1,2015-07-02T01:24:00Z,30.0600,-84.2910,-0.63,1111122 
COMPS,ioos:station:USF.COMPS:SHP:1,2015-07-02T01:30:00Z,30.0600,-84.2910,-0.63,1111122 
COMPS,ioos:station:USF.COMPS:SHP:1,2015-07-02T01:36:00Z,30.0600,-84.2910,-0.631,1111122 
COMPS,ioos:station:USF.COMPS:SHP:1,2015-07-02T01:42:00Z,30.0600,-84.2910,-0.631,1111122 
COMPS,ioos:station:USF.COMPS:SHP:1,2015-07-02T01:48:00Z,30.0600,-84.2910,-0.631,1111122 
COMPS,ioos:station:USF.COMPS:SHP:1,2015-07-02T01:54:00Z,30.0600,-84.2910,-0.631,1111122 
COMPS,ioos:station:USF.COMPS:SHP:1,2015-07-02T02:00:00Z,30.0600,-84.2910,-0.631,1111122 
COMPS,ioos:station:USF.COMPS:SHP:1,2015-07-02T02:06:00Z,30.0600,-84.2910,-0.631,1111122 
COMPS,ioos:station:USF.COMPS:SHP:1,2015-07-02T02:12:00Z,30.0600,-84.2910,-0.631,1111122 
COMPS,ioos:station:USF.COMPS:SHP:1,2015-07-02T02:18:00Z,30.0600,-84.2910,-0.631,1111122 
COMPS,ioos:station:USF.COMPS:SHP:1,2015-07-02T02:24:00Z,30.0600,-84.2910,-0.632,1111122 
COMPS,ioos:station:USF.COMPS:SHP:1,2015-07-02T02:30:00Z,30.0600,-84.2910,-0.631,1111122 
COMPS,ioos:station:USF.COMPS:SHP:1,2015-07-02T02:36:00Z,30.0600,-84.2910,-0.631,1111122 
COMPS,ioos:station:USF.COMPS:SHP:1,2015-07-02T02:42:00Z,30.0600,-84.2910,-0.631,1111122 
COMPS,ioos:station:USF.COMPS:SHP:1,2015-07-02T02:48:00Z,30.0600,-84.2910,-0.631,1111122 
COMPS,ioos:station:USF.COMPS:SHP:1,2015-07-02T02:54:00Z,30.0600,-84.2910,-0.631,1111122 